Saint James, MN

2:57 AM CDT on September 30, 2016 (GMT -0500)
Saint James Municipal

Weather History for KJYG - April, 2013

Change the Weather History Date:

Thursday, April 25, 2013

  Actual Average Record
Temperature  
Mean Temperature 44 °F -  
Max Temperature 57 °F 64 °F 82 °F (2012)
Min Temperature 30 °F 39 °F 28 °F (1972)
Degree Days  
Heating Degree Days 22    
Moisture  
Dew Point 25 °F    
Average Humidity 50    
Maximum Humidity 75    
Minimum Humidity 27    
Precipitation  
Precipitation 0.00 in - - ()
Sea Level Pressure  
Sea Level Pressure 30.13 in    
Wind  
Wind Speed 11 mph (SSW)    
Max Wind Speed 18 mph    
Max Gust Speed 24 mph    
Visibility 10 miles    
Events      
Averages and records for this station are not official NWS values.
T = Trace of Precipitation, MM = Missing Value Source: NWS Daily Summary

Daily Weather History Graph

Daily Weather History Graph

Search for Another Location

Airport or City:

Trip Planner

Search our weather history database for the weather conditions in past years. The results will help you decide how hot, cold, wet, or windy it might be!

Date:

Astronomy

Apr. 25, 2013 Rise Set
Actual Time 6:18 AM CDT 8:14 PM CDT
Civil Twilight 5:47 AM CDT 8:45 PM CDT
Nautical Twilight 5:09 AM CDT 9:23 PM CDT
Astronomical Twilight 4:28 AM CDT 10:05 PM CDT
Moon 8:29 PM CDT (4/25) 6:02 AM CDT (4/25)
Length of Visible Light 14h 58m
Length of Day
13h 56m
Full, 100% of the Moon is Illuminated
Apr 25
Full
Apr 25
Full
May 2
Last Quarter
May 9
New
May 17
First Quarter

Hourly Weather History & Observations

Time (CDT) Temp. Windchill Dew Point Humidity Pressure Visibility Wind Dir Wind Speed Gust Speed Precip Events Conditions
12:14 AM 35.6 °F 27.5 °F 28.4 °F 75% 30.08 in 10.0 mi West 11.5 mph - N/A   Clear
12:35 AM 35.6 °F 26.2 °F 24.8 °F 65% 30.08 in 10.0 mi West 15.0 mph 18.4 mph N/A   Clear
12:55 AM 35.6 °F 25.5 °F 23.0 °F 60% 30.09 in 10.0 mi West 17.3 mph 21.9 mph N/A   Clear
1:15 AM 33.8 °F 23.2 °F 21.2 °F 60% 30.10 in 10.0 mi West 17.3 mph 21.9 mph N/A   Clear
1:34 AM 33.8 °F 22.8 °F 21.2 °F 60% 30.10 in 10.0 mi West 18.4 mph 24.2 mph N/A   Clear
1:55 AM 33.8 °F 23.2 °F 21.2 °F 60% 30.11 in 10.0 mi West 17.3 mph - N/A   Clear
2:15 AM 33.8 °F 24.3 °F 21.2 °F 60% 30.12 in 10.0 mi West 13.8 mph - N/A   Clear
2:35 AM 33.8 °F 23.9 °F 21.2 °F 60% 30.12 in 10.0 mi West 15.0 mph 18.4 mph N/A   Clear
2:55 AM 33.8 °F 24.8 °F 21.2 °F 60% 30.12 in 10.0 mi West 12.7 mph - N/A   Clear
3:15 AM 32.0 °F 22.5 °F 21.2 °F 64% 30.12 in 10.0 mi West 12.7 mph - N/A   Clear
3:35 AM 32.0 °F 22.5 °F 21.2 °F 64% 30.13 in 10.0 mi West 12.7 mph - N/A   Clear
3:55 AM 32.0 °F 23.0 °F 21.2 °F 64% 30.13 in 10.0 mi West 11.5 mph - N/A   Clear
4:14 AM 30.2 °F 20.8 °F 21.2 °F 69% 30.14 in 10.0 mi West 11.5 mph - N/A   Clear
4:35 AM 30.2 °F 21.3 °F 21.2 °F 69% 30.14 in 10.0 mi West 10.4 mph - N/A   Clear
4:55 AM 30.2 °F 21.3 °F 21.2 °F 69% 30.15 in 10.0 mi West 10.4 mph - N/A   Clear
5:14 AM 30.2 °F 21.9 °F 21.2 °F 69% 30.15 in 10.0 mi West 9.2 mph - N/A   Clear
5:35 AM 30.2 °F 20.8 °F 21.2 °F 69% 30.15 in 10.0 mi West 11.5 mph - N/A   Clear
5:55 AM 30.2 °F 22.6 °F 21.2 °F 69% 30.15 in 10.0 mi West 8.1 mph - N/A   Clear
6:14 AM 30.2 °F 21.9 °F 21.2 °F 69% 30.16 in 10.0 mi West 9.2 mph - N/A   Clear
6:35 AM 30.2 °F 22.6 °F 21.2 °F 69% 30.17 in 10.0 mi West 8.1 mph - N/A   Clear
6:55 AM 30.2 °F 21.9 °F 21.2 °F 69% 30.19 in 10.0 mi West 9.2 mph - N/A   Clear
7:15 AM 30.2 °F 21.9 °F 21.2 °F 69% 30.19 in 10.0 mi WSW 9.2 mph - N/A   Clear
7:35 AM 32.0 °F 23.6 °F 21.2 °F 64% 30.20 in 10.0 mi West 10.4 mph - N/A   Clear
7:55 AM 33.8 °F 26.4 °F 21.2 °F 60% 30.21 in 10.0 mi West 9.2 mph - N/A   Clear
8:15 AM 33.8 °F 26.4 °F 21.2 °F 60% 30.22 in 10.0 mi West 9.2 mph - N/A   Clear
8:35 AM 33.8 °F 25.3 °F 21.2 °F 60% 30.22 in 10.0 mi West 11.5 mph - N/A   Clear
8:55 AM 35.6 °F 28.6 °F 21.2 °F 56% 30.23 in 10.0 mi West 9.2 mph - N/A   Clear
9:15 AM 37.4 °F 30.8 °F 21.2 °F 52% 30.23 in 10.0 mi West 9.2 mph - N/A   Clear
9:35 AM 37.4 °F - 21.2 °F 52% 30.23 in 10.0 mi Calm Calm - N/A   Clear
9:55 AM 37.4 °F - 21.2 °F 52% 30.23 in 10.0 mi Calm Calm - N/A   Clear
10:15 AM 39.2 °F - 19.4 °F 45% 30.24 in 10.0 mi Calm Calm - N/A   Clear
10:35 AM 39.2 °F - 19.4 °F 45% 30.23 in 10.0 mi Calm Calm - N/A   Clear
10:55 AM 41.0 °F - 21.2 °F 45% 30.24 in 10.0 mi Calm Calm - N/A   Clear
11:15 AM 41.0 °F - 21.2 °F 45% 30.23 in 10.0 mi Calm Calm - N/A   Clear
11:35 AM 42.8 °F - 19.4 °F 39% 30.22 in 10.0 mi Calm Calm - N/A   Clear
11:55 AM 42.8 °F - 19.4 °F 39% 30.22 in 10.0 mi Calm Calm - N/A   Clear
12:15 PM 44.6 °F - 15.8 °F 31% 30.21 in 10.0 mi Calm Calm - N/A   Clear
12:35 PM 46.4 °F - 17.6 °F 32% 30.21 in 10.0 mi Calm Calm - N/A   Clear
12:55 PM 46.4 °F - 15.8 °F 29% 30.20 in 10.0 mi Calm Calm - N/A   Clear
1:15 PM 48.2 °F - 15.8 °F 27% 30.20 in 10.0 mi Calm Calm - N/A   Clear
1:35 PM 48.2 °F - 17.6 °F 30% 30.19 in 10.0 mi Calm Calm - N/A   Clear
1:55 PM 48.2 °F - 17.6 °F 30% 30.19 in 10.0 mi Calm Calm - N/A   Clear
2:15 PM 50.0 °F - 21.2 °F 32% 30.18 in 10.0 mi South 4.6 mph - N/A   Clear
2:35 PM 51.8 °F - 23.0 °F 33% 30.18 in 10.0 mi South 5.8 mph - N/A   Clear
2:55 PM 53.6 °F - 23.0 °F 30% 30.17 in 10.0 mi Calm Calm - N/A   Clear
3:15 PM 53.6 °F - 26.6 °F 35% 30.16 in 10.0 mi SSE 11.5 mph 18.4 mph N/A   Clear
3:35 PM 53.6 °F - 24.8 °F 33% 30.15 in 10.0 mi SSE 4.6 mph - N/A   Clear
3:55 PM 55.4 °F - 26.6 °F 33% 30.14 in 10.0 mi South 11.5 mph - N/A   Clear
4:15 PM 55.4 °F - 28.4 °F 36% 30.13 in 10.0 mi SSE 12.7 mph - N/A   Clear
4:35 PM 57.2 °F - 28.4 °F 33% 30.11 in 10.0 mi SSE 13.8 mph 18.4 mph N/A   Clear
4:55 PM 57.2 °F - 26.6 °F 31% 30.10 in 10.0 mi South 10.4 mph - N/A   Clear
5:15 PM 57.2 °F - 28.4 °F 33% 30.10 in 10.0 mi SSE 10.4 mph 18.4 mph N/A   Clear
5:35 PM 57.2 °F - 30.2 °F 36% 30.09 in 10.0 mi SE 11.5 mph - N/A   Clear
5:55 PM 57.2 °F - 30.2 °F 36% 30.09 in 10.0 mi SSE 10.4 mph 16.1 mph N/A   Clear
6:15 PM 57.2 °F - 32.0 °F 38% 30.08 in 10.0 mi SE 11.5 mph 17.3 mph N/A   Clear
6:35 PM 57.2 °F - 33.8 °F 41% 30.08 in 10.0 mi SE 12.7 mph - N/A   Clear
6:55 PM 57.2 °F - 33.8 °F 41% 30.07 in 10.0 mi SE 10.4 mph 19.6 mph N/A   Clear
7:15 PM 57.2 °F - 33.8 °F 41% 30.06 in 10.0 mi ESE 11.5 mph - N/A   Clear
7:35 PM 55.4 °F - 35.6 °F 47% 30.06 in 10.0 mi ESE 9.2 mph - N/A   Clear
7:55 PM 55.4 °F - 35.6 °F 47% 30.06 in 10.0 mi ESE 12.7 mph - N/A   Clear
8:15 PM 53.6 °F - 33.8 °F 47% 30.05 in 10.0 mi East 10.4 mph - N/A   Clear
8:35 PM 51.8 °F - 35.6 °F 54% 30.05 in 10.0 mi East 11.5 mph - N/A   Clear
8:55 PM 51.8 °F - 33.8 °F 50% 30.04 in 10.0 mi ESE 13.8 mph - N/A   Clear
9:15 PM 51.8 °F - 33.8 °F 50% 30.04 in 10.0 mi ESE 16.1 mph - N/A   Clear
9:35 PM 50.0 °F - 33.8 °F 54% 30.04 in 10.0 mi ESE 13.8 mph - N/A   Clear
9:55 PM 48.2 °F - 33.8 °F 58% 30.04 in 10.0 mi ESE 13.8 mph - N/A   Clear
10:15 PM 50.0 °F - 33.8 °F 54% 30.03 in 10.0 mi ESE 12.7 mph - N/A   Scattered Clouds
10:35 PM 50.0 °F - 33.8 °F 54% 30.03 in 10.0 mi ESE 13.8 mph - N/A   Scattered Clouds
10:55 PM 50.0 °F - 33.8 °F 54% 30.02 in 10.0 mi SE 15.0 mph - N/A   Mostly Cloudy
11:15 PM 51.8 °F - 33.8 °F 50% 30.03 in 10.0 mi SE 13.8 mph - N/A   Mostly Cloudy
11:35 PM 51.8 °F - 33.8 °F 50% 30.02 in 10.0 mi SE 16.1 mph 20.7 mph N/A   Mostly Cloudy
11:55 PM 51.8 °F - 33.8 °F 50% 30.01 in 10.0 mi SE 16.1 mph - N/A   Scattered Clouds